2019-040T00:51:30.826,   1,   5,   1,   300,   4,          0,     12.988,  47482.516,    47.776,    -5.534,     1.380,   279.756, 3, 2.400E+01,  1.50,  78,  1.223E-03,  1.146E-02, -9.999E+09, -9.999E+09, -9.999E+09, -9.999E+09, -9.999E+09, -9.999E+09, -9.999E+09, -9.999E+09, -9.999E+09, -9.999E+09, -9.999E+09, -9.999E+09, -9.999E+09, -9.999E+09, -9.999E+09, -9.999E+09, 255
2019-040T00:56:30.830,   1,   5,   1,   300,   4,          0,     12.988,  47482.516,    47.749,    -5.528,     1.379,   276.732, 3, 2.400E+01,  1.50,  78,  1.659E-03,  1.146E-02, -9.999E+09, -9.999E+09, -9.999E+09, -9.999E+09, -9.999E+09, -9.999E+09, -9.999E+09, -9.999E+09, -9.999E+09, -9.999E+09, -9.999E+09, -9.999E+09, -9.999E+09, -9.999E+09, -9.999E+09, -9.999E+09, 255
2019-040T01:01:30.833,   1,   5,   1,   300,   4,          0,     12.988,  47482.516,    47.722,    -5.521,     1.379,   273.708, 3, 2.400E+01,  1.50,  78,  2.204E-03,  1.146E-02, -9.999E+09, -9.999E+09, -9.999E+09, -9.999E+09, -9.999E+09, -9.999E+09, -9.999E+09, -9.999E+09, -9.999E+09, -9.999E+09, -9.999E+09, -9.999E+09, -9.999E+09, -9.999E+09, -9.999E+09, -9.999E+09, 255
2019-040T01:06:30.837,   1,   5,   1,   300,   4,          0,     12.988,  47482.516,    47.695,    -5.515,     1.379,   270.684, 3, 2.400E+01,  1.50,  78,  1.293E-03,  1.146E-02, -9.999E+09, -9.999E+09, -9.999E+09, -9.999E+09, -9.999E+09, -9.999E+09, -9.999E+09, -9.999E+09, -9.999E+09, -9.999E+09, -9.999E+09, -9.999E+09, -9.999E+09, -9.999E+09, -9.999E+09, -9.999E+09, 255
2019-040T01:11:30.840,   1,   5,   1,   300,   4,          0,     12.988,  47482.516,    47.668,    -5.509,     1.379,   267.660, 3, 2.400E+01,  1.50,  78,  1.911E-03,  1.146E-02, -9.999E+09, -9.999E+09, -9.999E+09, -9.999E+09, -9.999E+09, -9.999E+09, -9.999E+09, -9.999E+09, -9.999E+09, -9.999E+09, -9.999E+09, -9.999E+09, -9.999E+09, -9.999E+09, -9.999E+09, -9.999E+09, 255
2019-040T01:16:30.844,   1,   5,   1,   300,   4,          0,     12.988,  47482.516,    47.641,    -5.502,     1.379,   264.636, 3, 2.400E+01,  1.50,  78,  2.761E-03,  1.146E-02, -9.999E+09, -9.999E+09, -9.999E+09, -9.999E+09, -9.999E+09, -9.999E+09, -9.999E+09, -9.999E+09, -9.999E+09, -9.999E+09, -9.999E+09, -9.999E+09, -9.999E+09, -9.999E+09, -9.999E+09, -9.999E+09, 255
2019-040T01:41:30.861,   1,   5,   1,   300,   4,          0,     12.988,  47482.516,    47.505,    -5.471,     1.379,   249.517, 3, 2.400E+01,  1.50,  78,  1.931E-03,  1.146E-02, -9.999E+09, -9.999E+09, -9.999E+09, -9.999E+09, -9.999E+09, -9.999E+09, -9.999E+09, -9.999E+09, -9.999E+09, -9.999E+09, -9.999E+09, -9.999E+09, -9.999E+09, -9.999E+09, -9.999E+09, -9.999E+09, 255
2019-040T01:46:30.865,   1,   5,   1,   300,   4,          0,     12.988,  47482.516,    47.478,    -5.465,     1.379,   246.493, 3, 2.400E+01,  1.50,  78,  2.184E-03,  1.146E-02, -9.999E+09, -9.999E+09, -9.999E+09, -9.999E+09, -9.999E+09, -9.999E+09, -9.999E+09, -9.999E+09, -9.999E+09, -9.999E+09, -9.999E+09, -9.999E+09, -9.999E+09, -9.999E+09, -9.999E+09, -9.999E+09, 255
2019-040T01:51:30.868,   1,   5,   1,   300,   4,          0,     12.988,  47482.516,    47.451,    -5.458,     1.379,   243.469, 3, 2.400E+01,  1.50,  78,  1.517E-03,  1.146E-02, -9.999E+09, -9.999E+09, -9.999E+09, -9.999E+09, -9.999E+09, -9.999E+09, -9.999E+09, -9.999E+09, -9.999E+09, -9.999E+09, -9.999E+09, -9.999E+09, -9.999E+09, -9.999E+09, -9.999E+09, -9.999E+09, 255
2019-040T01:56:30.872,   1,   5,   1,   300,   4,          0,     12.988,  47482.516,    47.423,    -5.452,     1.378,   240.446, 3, 2.400E+01,  1.50,  78,  1.593E-03,  1.146E-02, -9.999E+09, -9.999E+09, -9.999E+09, -9.999E+09, -9.999E+09, -9.999E+09, -9.999E+09, -9.999E+09, -9.999E+09, -9.999E+09, -9.999E+09, -9.999E+09, -9.999E+09, -9.999E+09, -9.999E+09, -9.999E+09, 255
2019-040T02:01:30.875,   1,   5,   1,   300,   4,          0,     12.988,  47482.516,    47.396,    -5.446,     1.378,   237.422, 3, 2.400E+01,  1.50,  78,  1.419E-03,  1.146E-02, -9.999E+09, -9.999E+09, -9.999E+09, -9.999E+09, -9.999E+09, -9.999E+09, -9.999E+09, -9.999E+09, -9.999E+09, -9.999E+09, -9.999E+09, -9.999E+09, -9.999E+09, -9.999E+09, -9.999E+09, -9.999E+09, 255
2019-040T02:06:30.879,   1,   5,   1,   300,   4,          0,     12.988,  47482.516,    47.369,    -5.439,     1.378,   234.398, 3, 2.400E+01,  1.50,  78,  2.343E-03,  1.146E-02, -9.999E+09, -9.999E+09, -9.999E+09, -9.999E+09, -9.999E+09, -9.999E+09, -9.999E+09, -9.999E+09, -9.999E+09, -9.999E+09, -9.999E+09, -9.999E+09, -9.999E+09, -9.999E+09, -9.999E+09, -9.999E+09, 255
2019-040T02:11:30.882,   1,   5,   1,   300,   4,          0,     12.988,  47482.516,    47.342,    -5.433,     1.378,   231.374, 3, 2.400E+01,  1.50,  78,  3.987E-03,  1.146E-02, -9.999E+09, -9.999E+09, -9.999E+09, -9.999E+09, -9.999E+09, -9.999E+09, -9.999E+09, -9.999E+09, -9.999E+09, -9.999E+09, -9.999E+09, -9.999E+09, -9.999E+09, -9.999E+09, -9.999E+09, -9.999E+09, 255
2019-040T02:16:30.886,   1,   5,   1,   300,   4,          0,     12.988,  47482.516,    47.315,    -5.426,     1.378,   228.350, 3, 2.400E+01,  1.50,  78,  4.205E-03,  1.146E-02, -9.999E+09, -9.999E+09, -9.999E+09, -9.999E+09, -9.999E+09, -9.999E+09, -9.999E+09, -9.999E+09, -9.999E+09, -9.999E+09, -9.999E+09, -9.999E+09, -9.999E+09, -9.999E+09, -9.999E+09, -9.999E+09, 255
2019-040T02:21:30.889,   1,   5,   1,   300,   4,          0,     12.988,  47482.516,    47.287,    -5.420,     1.378,   225.326, 3, 2.400E+01,  1.50,  78,  9.065E-03,  1.146E-02, -9.999E+09, -9.999E+09, -9.999E+09, -9.999E+09, -9.999E+09, -9.999E+09, -9.999E+09, -9.999E+09, -9.999E+09, -9.999E+09, -9.999E+09, -9.999E+09, -9.999E+09, -9.999E+09, -9.999E+09, -9.999E+09, 255
2019-040T02:26:30.893,   1,   5,   1,   300,   4,          0,     12.988,  47482.516,    47.260,    -5.414,     1.378,   222.302, 3, 2.400E+01,  1.50,  78,  1.193E-02,  1.146E-02, -9.999E+09, -9.999E+09, -9.999E+09, -9.999E+09, -9.999E+09, -9.999E+09, -9.999E+09, -9.999E+09, -9.999E+09, -9.999E+09, -9.999E+09, -9.999E+09, -9.999E+09, -9.999E+09, -9.999E+09, -9.999E+09, 255
2019-040T02:31:30.896,   1,   5,   1,   300,   4,          0,     12.988,  47482.516,    47.233,    -5.407,     1.378,   219.278, 3, 2.400E+01,  1.50,  78,  1.049E-02,  1.146E-02, -9.999E+09, -9.999E+09, -9.999E+09, -9.999E+09, -9.999E+09, -9.999E+09, -9.999E+09, -9.999E+09, -9.999E+09, -9.999E+09, -9.999E+09, -9.999E+09, -9.999E+09, -9.999E+09, -9.999E+09, -9.999E+09, 255
2019-040T02:36:30.899,   1,   5,   1,   300,   4,          0,     12.988,  47482.516,    47.206,    -5.401,     1.378,   216.255, 3, 2.400E+01,  1.50,  78,  8.173E-03,  1.146E-02, -9.999E+09, -9.999E+09, -9.999E+09, -9.999E+09, -9.999E+09, -9.999E+09, -9.999E+09, -9.999E+09, -9.999E+09, -9.999E+09, -9.999E+09, -9.999E+09, -9.999E+09, -9.999E+09, -9.999E+09, -9.999E+09, 255
2019-040T02:41:30.903,   1,   5,   1,   300,   4,          0,     12.988,  47482.516,    47.178,    -5.394,     1.378,   213.231, 3, 2.400E+01,  1.50,  78,  8.595E-03,  1.146E-02, -9.999E+09, -9.999E+09, -9.999E+09, -9.999E+09, -9.999E+09, -9.999E+09, -9.999E+09, -9.999E+09, -9.999E+09, -9.999E+09, -9.999E+09, -9.999E+09, -9.999E+09, -9.999E+09, -9.999E+09, -9.999E+09, 255
2019-040T02:46:30.906,   1,   5,   1,   300,   4,          0,     12.988,  47482.516,    47.151,    -5.388,     1.378,   210.207, 3, 2.400E+01,  1.50,  78,  7.846E-03,  1.146E-02, -9.999E+09, -9.999E+09, -9.999E+09, -9.999E+09, -9.999E+09, -9.999E+09, -9.999E+09, -9.999E+09, -9.999E+09, -9.999E+09, -9.999E+09, -9.999E+09, -9.999E+09, -9.999E+09, -9.999E+09, -9.999E+09, 255
2019-040T02:51:30.910,   1,   5,   1,   300,   4,          0,     12.988,  47482.516,    47.124,    -5.382,     1.378,   207.183, 3, 2.400E+01,  1.50,  78,  4.886E-03,  1.146E-02, -9.999E+09, -9.999E+09, -9.999E+09, -9.999E+09, -9.999E+09, -9.999E+09, -9.999E+09, -9.999E+09, -9.999E+09, -9.999E+09, -9.999E+09, -9.999E+09, -9.999E+09, -9.999E+09, -9.999E+09, -9.999E+09, 255
2019-040T02:56:30.913,   1,   5,   1,   300,   4,          0,     12.988,  47482.516,    47.096,    -5.375,     1.377,   204.159, 3, 2.400E+01,  1.50,  78,  6.395E-03,  1.146E-02, -9.999E+09, -9.999E+09, -9.999E+09, -9.999E+09, -9.999E+09, -9.999E+09, -9.999E+09, -9.999E+09, -9.999E+09, -9.999E+09, -9.999E+09, -9.999E+09, -9.999E+09, -9.999E+09, -9.999E+09, -9.999E+09, 255
2019-040T03:01:30.917,   1,   5,   1,   300,   4,          0,     12.988,  47482.516,    47.069,    -5.369,     1.377,   201.135, 3, 2.400E+01,  1.50,  78,  9.896E-03,  1.146E-02, -9.999E+09, -9.999E+09, -9.999E+09, -9.999E+09, -9.999E+09, -9.999E+09, -9.999E+09, -9.999E+09, -9.999E+09, -9.999E+09, -9.999E+09, -9.999E+09, -9.999E+09, -9.999E+09, -9.999E+09, -9.999E+09, 255
2019-040T03:06:30.920,   1,   5,   1,   300,   4,          0,     12.988,  47482.516,    47.042,    -5.362,     1.377,   198.111, 3, 2.400E+01,  1.50,  78,  1.758E-02,  1.146E-02, -9.999E+09, -9.999E+09, -9.999E+09, -9.999E+09, -9.999E+09, -9.999E+09, -9.999E+09, -9.999E+09, -9.999E+09, -9.999E+09, -9.999E+09, -9.999E+09, -9.999E+09, -9.999E+09, -9.999E+09, -9.999E+09, 255
2019-040T03:11:30.924,   1,   5,   1,   300,   4,          0,     12.988,  47482.516,    47.014,    -5.356,     1.377,   195.087, 3, 2.400E+01,  1.50,  78,  1.994E-02,  1.146E-02, -9.999E+09, -9.999E+09, -9.999E+09, -9.999E+09, -9.999E+09, -9.999E+09, -9.999E+09, -9.999E+09, -9.999E+09, -9.999E+09, -9.999E+09, -9.999E+09, -9.999E+09, -9.999E+09, -9.999E+09, -9.999E+09, 255
2019-040T03:16:30.927,   1,   5,   1,   300,   4,          0,     12.988,  47482.516,    46.987,    -5.349,     1.377,   192.063, 3, 2.400E+01,  1.50,  78,  1.462E-02,  1.146E-02, -9.999E+09, -9.999E+09, -9.999E+09, -9.999E+09, -9.999E+09, -9.999E+09, -9.999E+09, -9.999E+09, -9.999E+09, -9.999E+09, -9.999E+09, -9.999E+09, -9.999E+09, -9.999E+09, -9.999E+09, -9.999E+09, 255
2019-040T03:21:30.931,   1,   5,   1,   300,   4,          0,     12.988,  47482.516,    46.959,    -5.343,     1.377,   189.040, 3, 2.400E+01,  1.50,  78,  1.245E-02,  1.146E-02, -9.999E+09, -9.999E+09, -9.999E+09, -9.999E+09, -9.999E+09, -9.999E+09, -9.999E+09, -9.999E+09, -9.999E+09, -9.999E+09, -9.999E+09, -9.999E+09, -9.999E+09, -9.999E+09, -9.999E+09, -9.999E+09, 255
2019-040T03:26:30.934,   1,   5,   1,   300,   4,          0,     12.988,  47482.516,    46.932,    -5.336,     1.377,   186.016, 3, 2.400E+01,  1.50,  78,  7.615E-03,  1.146E-02, -9.999E+09, -9.999E+09, -9.999E+09, -9.999E+09, -9.999E+09, -9.999E+09, -9.999E+09, -9.999E+09, -9.999E+09, -9.999E+09, -9.999E+09, -9.999E+09, -9.999E+09, -9.999E+09, -9.999E+09, -9.999E+09, 255
2019-040T03:31:30.938,   1,   5,   1,   300,   4,          0,     12.988,  47482.516,    46.905,    -5.330,     1.377,   182.992, 3, 2.400E+01,  1.50,  78,  1.809E-02,  1.146E-02, -9.999E+09, -9.999E+09, -9.999E+09, -9.999E+09, -9.999E+09, -9.999E+09, -9.999E+09, -9.999E+09, -9.999E+09, -9.999E+09, -9.999E+09, -9.999E+09, -9.999E+09, -9.999E+09, -9.999E+09, -9.999E+09, 255
2019-040T03:36:30.941,   1,   5,   1,   300,   4,          0,     12.988,  47482.516,    46.877,    -5.323,     1.376,   179.968, 3, 2.400E+01,  1.50,  78,  2.100E-02,  1.147E-02, -9.999E+09, -9.999E+09, -9.999E+09, -9.999E+09, -9.999E+09, -9.999E+09, -9.999E+09, -9.999E+09, -9.999E+09, -9.999E+09, -9.999E+09, -9.999E+09, -9.999E+09, -9.999E+09, -9.999E+09, -9.999E+09, 255
2019-040T03:41:30.945,   1,   5,   1,   300,   4,          0,     12.988,  47482.516,    46.850,    -5.317,     1.376,   176.944, 3, 2.400E+01,  1.50,  78,  2.729E-02,  1.147E-02, -9.999E+09, -9.999E+09, -9.999E+09, -9.999E+09, -9.999E+09, -9.999E+09, -9.999E+09, -9.999E+09, -9.999E+09, -9.999E+09, -9.999E+09, -9.999E+09, -9.999E+09, -9.999E+09, -9.999E+09, -9.999E+09, 255
2019-040T03:46:30.948,   1,   5,   1,   300,   4,          0,     12.988,  47482.516,    46.822,    -5.310,     1.376,   173.920, 3, 2.400E+01,  1.50,  78,  1.452E-02,  1.146E-02, -9.999E+09, -9.999E+09, -9.999E+09, -9.999E+09, -9.999E+09, -9.999E+09, -9.999E+09, -9.999E+09, -9.999E+09, -9.999E+09, -9.999E+09, -9.999E+09, -9.999E+09, -9.999E+09, -9.999E+09, -9.999E+09, 255
2019-040T03:51:30.952,   1,   5,   1,   300,   4,          0,     12.988,  47482.516,    46.795,    -5.304,     1.376,   170.896, 3, 2.400E+01,  1.50,  78,  1.368E-02,  1.146E-02, -9.999E+09, -9.999E+09, -9.999E+09, -9.999E+09, -9.999E+09, -9.999E+09, -9.999E+09, -9.999E+09, -9.999E+09, -9.999E+09, -9.999E+09, -9.999E+09, -9.999E+09, -9.999E+09, -9.999E+09, -9.999E+09, 255
2019-040T03:56:30.955,   1,   5,   1,   300,   4,          0,     12.988,  47482.516,    46.767,    -5.297,     1.376,   167.872, 3, 2.400E+01,  1.50,  78,  1.669E-02,  1.146E-02, -9.999E+09, -9.999E+09, -9.999E+09, -9.999E+09, -9.999E+09, -9.999E+09, -9.999E+09, -9.999E+09, -9.999E+09, -9.999E+09, -9.999E+09, -9.999E+09, -9.999E+09, -9.999E+09, -9.999E+09, -9.999E+09, 255
2019-040T04:01:30.959,   1,   5,   1,   300,   4,          0,     12.988,  47482.516,    46.740,    -5.291,     1.376,   164.848, 3, 2.400E+01,  1.50,  78,  1.992E-02,  1.146E-02, -9.999E+09, -9.999E+09, -9.999E+09, -9.999E+09, -9.999E+09, -9.999E+09, -9.999E+09, -9.999E+09, -9.999E+09, -9.999E+09, -9.999E+09, -9.999E+09, -9.999E+09, -9.999E+09, -9.999E+09, -9.999E+09, 255
2019-040T04:06:30.962,   1,   5,   1,   300,   4,          0,     12.988,  47482.516,    46.712,    -5.284,     1.376,   161.824, 3, 2.400E+01,  1.50,  78,  1.895E-02,  1.146E-02, -9.999E+09, -9.999E+09, -9.999E+09, -9.999E+09, -9.999E+09, -9.999E+09, -9.999E+09, -9.999E+09, -9.999E+09, -9.999E+09, -9.999E+09, -9.999E+09, -9.999E+09, -9.999E+09, -9.999E+09, -9.999E+09, 255
2019-040T04:11:30.966,   1,   5,   1,   300,   4,          0,     12.988,  47482.516,    46.685,    -5.278,     1.376,   158.801, 3, 2.400E+01,  1.50,  78,  1.822E-02,  1.146E-02, -9.999E+09, -9.999E+09, -9.999E+09, -9.999E+09, -9.999E+09, -9.999E+09, -9.999E+09, -9.999E+09, -9.999E+09, -9.999E+09, -9.999E+09, -9.999E+09, -9.999E+09, -9.999E+09, -9.999E+09, -9.999E+09, 255
2019-040T04:16:30.969,   1,   5,   1,   300,   4,          0,     12.988,  47482.516,    46.657,    -5.271,     1.376,   155.777, 3, 2.400E+01,  1.50,  78,  1.385E-02,  1.146E-02, -9.999E+09, -9.999E+09, -9.999E+09, -9.999E+09, -9.999E+09, -9.999E+09, -9.999E+09, -9.999E+09, -9.999E+09, -9.999E+09, -9.999E+09, -9.999E+09, -9.999E+09, -9.999E+09, -9.999E+09, -9.999E+09, 255
2019-040T04:21:30.973,   1,   5,   1,   300,   4,          0,     12.988,  47482.516,    46.630,    -5.265,     1.376,   152.753, 3, 2.400E+01,  1.50,  78,  1.695E-02,  1.146E-02, -9.999E+09, -9.999E+09, -9.999E+09, -9.999E+09, -9.999E+09, -9.999E+09, -9.999E+09, -9.999E+09, -9.999E+09, -9.999E+09, -9.999E+09, -9.999E+09, -9.999E+09, -9.999E+09, -9.999E+09, -9.999E+09, 255
2019-040T04:26:30.976,   1,   5,   1,   300,   4,          0,     12.988,  47482.516,    46.602,    -5.258,     1.376,   149.729, 3, 2.400E+01,  1.50,  78,  2.346E-02,  1.147E-02, -9.999E+09, -9.999E+09, -9.999E+09, -9.999E+09, -9.999E+09, -9.999E+09, -9.999E+09, -9.999E+09, -9.999E+09, -9.999E+09, -9.999E+09, -9.999E+09, -9.999E+09, -9.999E+09, -9.999E+09, -9.999E+09, 255
2019-040T04:31:30.980,   1,   5,   1,   300,   4,          0,     12.988,  47482.516,    46.574,    -5.252,     1.376,   146.705, 3, 2.400E+01,  1.50,  78,  1.320E-02,  1.146E-02, -9.999E+09, -9.999E+09, -9.999E+09, -9.999E+09, -9.999E+09, -9.999E+09, -9.999E+09, -9.999E+09, -9.999E+09, -9.999E+09, -9.999E+09, -9.999E+09, -9.999E+09, -9.999E+09, -9.999E+09, -9.999E+09, 255
2019-040T04:36:30.983,   1,   5,   1,   300,   4,          0,     12.988,  47482.516,    46.547,    -5.245,     1.375,   143.681, 3, 2.400E+01,  1.50,  78,  1.431E-02,  1.146E-02, -9.999E+09, -9.999E+09, -9.999E+09, -9.999E+09, -9.999E+09, -9.999E+09, -9.999E+09, -9.999E+09, -9.999E+09, -9.999E+09, -9.999E+09, -9.999E+09, -9.999E+09, -9.999E+09, -9.999E+09, -9.999E+09, 255
2019-040T04:41:30.987,   1,   5,   1,   300,   4,          0,     12.988,  47482.516,    46.519,    -5.238,     1.375,   140.657, 3, 2.400E+01,  1.50,  78,  1.737E-02,  1.146E-02, -9.999E+09, -9.999E+09, -9.999E+09, -9.999E+09, -9.999E+09, -9.999E+09, -9.999E+09, -9.999E+09, -9.999E+09, -9.999E+09, -9.999E+09, -9.999E+09, -9.999E+09, -9.999E+09, -9.999E+09, -9.999E+09, 255
2019-040T04:46:30.990,   1,   5,   1,   300,   4,          0,     12.988,  47482.516,    46.492,    -5.232,     1.375,   137.633, 3, 2.400E+01,  1.50,  78,  1.392E-02,  1.146E-02, -9.999E+09, -9.999E+09, -9.999E+09, -9.999E+09, -9.999E+09, -9.999E+09, -9.999E+09, -9.999E+09, -9.999E+09, -9.999E+09, -9.999E+09, -9.999E+09, -9.999E+09, -9.999E+09, -9.999E+09, -9.999E+09, 255
2019-040T04:51:30.994,   1,   5,   1,   300,   4,          0,     12.988,  47482.516,    46.464,    -5.225,     1.375,   134.609, 3, 2.400E+01,  1.50,  78,  1.560E-02,  1.146E-02, -9.999E+09, -9.999E+09, -9.999E+09, -9.999E+09, -9.999E+09, -9.999E+09, -9.999E+09, -9.999E+09, -9.999E+09, -9.999E+09, -9.999E+09, -9.999E+09, -9.999E+09, -9.999E+09, -9.999E+09, -9.999E+09, 255
2019-040T04:56:30.997,   1,   5,   1,   300,   4,          0,     12.988,  47482.516,    46.436,    -5.219,     1.375,   131.585, 3, 2.400E+01,  1.50,  78,  1.644E-02,  1.147E-02, -9.999E+09, -9.999E+09, -9.999E+09, -9.999E+09, -9.999E+09, -9.999E+09, -9.999E+09, -9.999E+09, -9.999E+09, -9.999E+09, -9.999E+09, -9.999E+09, -9.999E+09, -9.999E+09, -9.999E+09, -9.999E+09, 255
2019-040T05:01:31.001,   1,   5,   1,   300,   4,          0,     12.988,  47482.516,    46.409,    -5.212,     1.375,   128.561, 3, 2.400E+01,  1.50,  78,  2.173E-02,  1.147E-02, -9.999E+09, -9.999E+09, -9.999E+09, -9.999E+09, -9.999E+09, -9.999E+09, -9.999E+09, -9.999E+09, -9.999E+09, -9.999E+09, -9.999E+09, -9.999E+09, -9.999E+09, -9.999E+09, -9.999E+09, -9.999E+09, 255
2019-040T05:06:31.004,   1,   5,   1,   300,   4,          0,     12.988,  47482.516,    46.381,    -5.205,     1.375,   125.538, 3, 2.400E+01,  1.50,  78,  1.490E-02,  1.146E-02, -9.999E+09, -9.999E+09, -9.999E+09, -9.999E+09, -9.999E+09, -9.999E+09, -9.999E+09, -9.999E+09, -9.999E+09, -9.999E+09, -9.999E+09, -9.999E+09, -9.999E+09, -9.999E+09, -9.999E+09, -9.999E+09, 255
2019-040T05:11:31.008,   1,   5,   1,   300,   4,          0,     12.988,  47482.516,    46.353,    -5.199,     1.375,   122.514, 3, 2.400E+01,  1.50,  78,  1.204E-02,  1.147E-02, -9.999E+09, -9.999E+09, -9.999E+09, -9.999E+09, -9.999E+09, -9.999E+09, -9.999E+09, -9.999E+09, -9.999E+09, -9.999E+09, -9.999E+09, -9.999E+09, -9.999E+09, -9.999E+09, -9.999E+09, -9.999E+09, 255
2019-040T05:16:31.011,   1,   5,   1,   300,   4,          0,     12.988,  47482.516,    46.325,    -5.192,     1.374,   119.490, 3, 2.400E+01,  1.50,  78,  1.080E-02,  1.146E-02, -9.999E+09, -9.999E+09, -9.999E+09, -9.999E+09, -9.999E+09, -9.999E+09, -9.999E+09, -9.999E+09, -9.999E+09, -9.999E+09, -9.999E+09, -9.999E+09, -9.999E+09, -9.999E+09, -9.999E+09, -9.999E+09, 255
2019-040T05:21:31.015,   1,   5,   1,   300,   4,          0,     12.988,  47482.516,    46.298,    -5.185,     1.374,   116.466, 3, 2.400E+01,  1.50,  78,  1.120E-02,  1.146E-02, -9.999E+09, -9.999E+09, -9.999E+09, -9.999E+09, -9.999E+09, -9.999E+09, -9.999E+09, -9.999E+09, -9.999E+09, -9.999E+09, -9.999E+09, -9.999E+09, -9.999E+09, -9.999E+09, -9.999E+09, -9.999E+09, 255
2019-040T05:26:31.018,   1,   5,   1,   300,   4,          0,     12.988,  47482.516,    46.270,    -5.179,     1.374,   113.442, 3, 2.400E+01,  1.50,  78,  9.358E-03,  1.146E-02, -9.999E+09, -9.999E+09, -9.999E+09, -9.999E+09, -9.999E+09, -9.999E+09, -9.999E+09, -9.999E+09, -9.999E+09, -9.999E+09, -9.999E+09, -9.999E+09, -9.999E+09, -9.999E+09, -9.999E+09, -9.999E+09, 255
2019-040T05:31:31.022,   1,   5,   1,   300,   4,          0,     12.988,  47482.516,    46.242,    -5.172,     1.374,   110.418, 3, 2.400E+01,  1.50,  78,  6.735E-03,  1.146E-02, -9.999E+09, -9.999E+09, -9.999E+09, -9.999E+09, -9.999E+09, -9.999E+09, -9.999E+09, -9.999E+09, -9.999E+09, -9.999E+09, -9.999E+09, -9.999E+09, -9.999E+09, -9.999E+09, -9.999E+09, -9.999E+09, 255
2019-040T05:36:31.025,   1,   5,   1,   300,   4,          0,     12.988,  47482.516,    46.214,    -5.165,     1.374,   107.394, 3, 2.400E+01,  1.50,  78,  5.519E-03,  1.146E-02, -9.999E+09, -9.999E+09, -9.999E+09, -9.999E+09, -9.999E+09, -9.999E+09, -9.999E+09, -9.999E+09, -9.999E+09, -9.999E+09, -9.999E+09, -9.999E+09, -9.999E+09, -9.999E+09, -9.999E+09, -9.999E+09, 255
2019-040T05:41:31.029,   1,   5,   1,   300,   4,          0,     12.988,  47482.516,    46.187,    -5.159,     1.374,   104.370, 3, 2.400E+01,  1.50,  78,  6.932E-03,  1.146E-02, -9.999E+09, -9.999E+09, -9.999E+09, -9.999E+09, -9.999E+09, -9.999E+09, -9.999E+09, -9.999E+09, -9.999E+09, -9.999E+09, -9.999E+09, -9.999E+09, -9.999E+09, -9.999E+09, -9.999E+09, -9.999E+09, 255
2019-040T05:46:31.032,   1,   5,   1,   300,   4,          0,     12.988,  47482.516,    46.159,    -5.152,     1.374,   101.346, 3, 2.400E+01,  1.50,  78,  4.162E-03,  1.146E-02, -9.999E+09, -9.999E+09, -9.999E+09, -9.999E+09, -9.999E+09, -9.999E+09, -9.999E+09, -9.999E+09, -9.999E+09, -9.999E+09, -9.999E+09, -9.999E+09, -9.999E+09, -9.999E+09, -9.999E+09, -9.999E+09, 255
2019-040T05:51:31.036,   1,   5,   1,   300,   4,          0,     12.988,  47482.516,    46.131,    -5.145,     1.374,    98.322, 3, 2.400E+01,  1.50,  78,  4.988E-03,  1.146E-02, -9.999E+09, -9.999E+09, -9.999E+09, -9.999E+09, -9.999E+09, -9.999E+09, -9.999E+09, -9.999E+09, -9.999E+09, -9.999E+09, -9.999E+09, -9.999E+09, -9.999E+09, -9.999E+09, -9.999E+09, -9.999E+09, 255
2019-040T05:56:31.039,   1,   5,   1,   300,   4,          0,     12.988,  47482.516,    46.103,    -5.139,     1.374,    95.298, 3, 2.400E+01,  1.50,  78,  2.414E-03,  1.146E-02, -9.999E+09, -9.999E+09, -9.999E+09, -9.999E+09, -9.999E+09, -9.999E+09, -9.999E+09, -9.999E+09, -9.999E+09, -9.999E+09, -9.999E+09, -9.999E+09, -9.999E+09, -9.999E+09, -9.999E+09, -9.999E+09, 255
2019-040T06:01:31.043,   1,   5,   1,   300,   4,          0,     12.988,  47482.516,    46.075,    -5.132,     1.374,    92.274, 3, 2.400E+01,  1.50,  78,  2.482E-03,  1.146E-02, -9.999E+09, -9.999E+09, -9.999E+09, -9.999E+09, -9.999E+09, -9.999E+09, -9.999E+09, -9.999E+09, -9.999E+09, -9.999E+09, -9.999E+09, -9.999E+09, -9.999E+09, -9.999E+09, -9.999E+09, -9.999E+09, 255
2019-040T06:06:31.046,   1,   5,   1,   300,   4,          0,     12.988,  47482.516,    46.047,    -5.125,     1.374,    89.250, 3, 2.400E+01,  1.50,  78,  2.143E-03,  1.146E-02, -9.999E+09, -9.999E+09, -9.999E+09, -9.999E+09, -9.999E+09, -9.999E+09, -9.999E+09, -9.999E+09, -9.999E+09, -9.999E+09, -9.999E+09, -9.999E+09, -9.999E+09, -9.999E+09, -9.999E+09, -9.999E+09, 255
2019-040T06:11:31.050,   1,   5,   1,   300,   4,          0,     12.988,  47482.516,    46.020,    -5.118,     1.374,    86.226, 3, 2.400E+01,  1.50,  78,  2.254E-03,  1.146E-02, -9.999E+09, -9.999E+09, -9.999E+09, -9.999E+09, -9.999E+09, -9.999E+09, -9.999E+09, -9.999E+09, -9.999E+09, -9.999E+09, -9.999E+09, -9.999E+09, -9.999E+09, -9.999E+09, -9.999E+09, -9.999E+09, 255
2019-040T06:16:31.053,   1,   5,   1,   300,   4,          0,     12.988,  47482.516,    45.992,    -5.112,     1.373,    83.203, 3, 2.400E+01,  1.50,  78,  2.964E-03,  1.146E-02, -9.999E+09, -9.999E+09, -9.999E+09, -9.999E+09, -9.999E+09, -9.999E+09, -9.999E+09, -9.999E+09, -9.999E+09, -9.999E+09, -9.999E+09, -9.999E+09, -9.999E+09, -9.999E+09, -9.999E+09, -9.999E+09, 255
2019-040T06:21:31.057,   1,   5,   1,   300,   4,          0,     12.988,  47482.516,    45.964,    -5.105,     1.373,    80.179, 3, 2.400E+01,  1.50,  78,  2.820E-03,  1.146E-02, -9.999E+09, -9.999E+09, -9.999E+09, -9.999E+09, -9.999E+09, -9.999E+09, -9.999E+09, -9.999E+09, -9.999E+09, -9.999E+09, -9.999E+09, -9.999E+09, -9.999E+09, -9.999E+09, -9.999E+09, -9.999E+09, 255